| time (UTC) | temp F | wind direction | speed MPH | gust MPH | rain 1hr in | rain 24hr in | rain mn in | humidity % | barometer mb |
| 20260506204732 | 68 | 0 | 0.0 | 0.0 | 0.00 | 0.00 | 0.00 | 1105.9 | |
| 20260506204227 | 68 | 0 | 0.0 | 0.0 | 0.00 | 0.00 | 0.00 | 1105.9 | |
| 20260506203721 | 68 | 0 | 0.0 | 0.0 | 0.00 | 0.00 | 0.00 | 1106.0 | |
| 20260506203216 | 68 | 0 | 0.0 | 0.0 | 0.00 | 0.00 | 0.00 | 1106.0 | |
| 20260506202709 | 68 | 0 | 0.0 | 0.0 | 0.00 | 0.00 | 0.00 | 1105.8 | |
| 20260506202204 | 68 | 0 | 0.0 | 0.0 | 0.00 | 0.00 | 0.00 | 1105.8 | |
| 20260506201657 | 68 | 0 | 0.0 | 0.0 | 0.00 | 0.00 | 0.00 | 1105.8 | |
| 20260506201152 | 68 | 0 | 0.0 | 0.0 | 0.00 | 0.00 | 0.00 | 1105.9 | |
| 20260506200646 | 68 | 0 | 0.0 | 0.0 | 0.00 | 0.00 | 0.00 | 1105.8 | |
| 20260506200141 | 68 | 0 | 0.0 | 0.0 | 0.00 | 0.00 | 0.00 | 1105.8 | |
| 20260506195636 | 68 | 0 | 0.0 | 0.0 | 0.00 | 0.00 | 0.00 | 1105.7 | |
| 20260506195130 | 68 | 0 | 0.0 | 0.0 | 0.00 | 0.00 | 0.00 | 1105.7 | |
| 20260506194625 | 69 | 0 | 0.0 | 0.0 | 0.00 | 0.00 | 0.00 | 1105.7 | |
| 20260506194120 | 69 | 0 | 0.0 | 0.0 | 0.00 | 0.00 | 0.00 | 1105.7 | |
| 20260506193614 | 69 | 0 | 0.0 | 0.0 | 0.00 | 0.00 | 0.00 | 1105.7 | |
| 20260506193109 | 69 | 0 | 0.0 | 0.0 | 0.00 | 0.00 | 0.00 | 1105.6 | |
| 20260506192603 | 69 | 0 | 0.0 | 0.0 | 0.00 | 0.00 | 0.00 | 1105.6 | |
| 20260506192058 | 69 | 0 | 0.0 | 0.0 | 0.00 | 0.00 | 0.00 | 1105.4 | |
| 20260506191552 | 69 | 0 | 0.0 | 0.0 | 0.00 | 0.00 | 0.00 | 1105.5 | |
| 20260506191047 | 69 | 0 | 0.0 | 0.0 | 0.00 | 0.00 | 0.00 | 1105.4 | |
| 20260506190542 | 69 | 0 | 0.0 | 0.0 | 0.00 | 0.00 | 0.00 | 1105.3 | |
| 20260506190036 | 70 | 0 | 0.0 | 0.0 | 0.00 | 0.00 | 0.00 | 1105.2 | |
| 20260506185531 | 70 | 315 | 0.0 | 0.0 | 0.00 | 0.00 | 0.00 | 1105.2 | |
| 20260506185025 | 70 | 315 | 0.0 | 0.0 | 0.00 | 0.00 | 0.00 | 1105.0 | |
| 20260506184520 | 70 | 315 | 0.0 | 0.0 | 0.00 | 0.00 | 0.00 | 1104.8 | |
| 20260506184015 | 70 | 315 | 0.0 | 0.0 | 0.00 | 0.00 | 0.00 | 1104.9 | |
| 20260506183509 | 70 | 315 | 0.0 | 0.0 | 0.00 | 0.00 | 0.00 | 1104.9 | |
| 20260506183003 | 71 | 134 | 0.0 | 0.0 | 0.00 | 0.00 | 0.00 | 1105.0 | |
| 20260506182457 | 71 | 134 | 0.0 | 0.0 | 0.00 | 0.00 | 0.00 | 1104.9 | |
| 20260506181952 | 71 | 134 | 0.0 | 0.0 | 0.00 | 0.00 | 0.00 | 1104.9 | |
| 20260506181446 | 71 | 134 | 0.0 | 0.0 | 0.00 | 0.00 | 0.00 | 1104.9 | |
| 20260506180941 | 71 | 134 | 0.0 | 0.0 | 0.00 | 0.00 | 0.00 | 1104.9 | |
| 20260506180436 | 72 | 134 | 0.0 | 0.0 | 0.00 | 0.00 | 0.00 | 1104.8 | |
| 20260506175930 | 72 | 134 | 0.0 | 0.0 | 0.00 | 0.00 | 0.00 | 1104.8 | |
| 20260506175425 | 72 | 134 | 0.0 | 0.0 | 0.00 | 0.00 | 0.00 | 1104.5 | |
| 20260506174414 | 72 | 134 | 0.0 | 0.0 | 0.00 | 0.00 | 0.00 | 1104.6 | |
| 20260506173909 | 72 | 134 | 0.0 | 0.0 | 0.00 | 0.00 | 0.00 | 1104.5 | |
| 20260506173403 | 72 | 118 | 0.0 | 0.0 | 0.00 | 0.00 | 0.00 | 1104.5 | |
| 20260506172858 | 72 | 89 | 0.0 | 0.0 | 0.00 | 0.00 | 0.00 | 1104.4 | |
| 20260506172352 | 72 | 89 | 0.0 | 0.0 | 0.00 | 0.00 | 0.00 | 1104.4 | |
| 20260506171847 | 72 | 89 | 0.0 | 0.0 | 0.00 | 0.00 | 0.00 | 1104.4 | |
| 20260506171341 | 72 | 100 | 0.0 | 0.0 | 0.00 | 0.00 | 0.00 | 1104.4 | |
| 20260506170836 | 73 | 179 | 0.0 | 0.0 | 0.00 | 0.00 | 0.00 | 1104.4 | |
| 20260506170331 | 73 | 179 | 0.0 | 0.0 | 0.00 | 0.00 | 0.00 | 1104.4 | |
| 20260506165825 | 73 | 179 | 0.0 | 0.0 | 0.00 | 0.00 | 0.00 | 1104.6 | |
| 20260506165320 | 73 | 89 | 0.0 | 0.0 | 0.00 | 0.00 | 0.00 | 1104.5 | |
| 20260506164814 | 73 | 89 | 0.0 | 0.0 | 0.00 | 0.00 | 0.00 | 1104.6 | |
| 20260506164309 | 73 | 89 | 0.0 | 0.0 | 0.00 | 0.00 | 0.00 | 1104.6 | |
| 20260506163804 | 73 | 89 | 0.0 | 0.0 | 0.00 | 0.00 | 0.00 | 1104.7 | |
| 20260506163258 | 73 | 89 | 0.0 | 0.0 | 0.00 | 0.00 | 0.00 | 1104.7 | |
| 20260506162753 | 73 | 89 | 0.0 | 0.0 | 0.00 | 0.00 | 0.00 | 1104.7 | |
| 20260506162247 | 73 | 89 | 0.0 | 0.0 | 0.00 | 0.00 | 0.00 | 1104.6 | |
| 20260506161742 | 74 | 89 | 0.0 | 0.0 | 0.00 | 0.00 | 0.00 | 1104.7 | |
| 20260506161236 | 74 | 89 | 0.0 | 0.0 | 0.00 | 0.00 | 0.00 | 1104.8 | |
| 20260506160731 | 74 | 89 | 0.0 | 0.0 | 0.00 | 0.00 | 0.00 | 1104.7 | |
| 20260506160226 | 74 | 89 | 0.0 | 0.0 | 0.00 | 0.00 | 0.00 | 1104.5 | |
| 20260506155720 | 74 | 89 | 0.0 | 0.0 | 0.00 | 0.00 | 0.00 | 1104.6 | |
| 20260506155215 | 74 | 89 | 0.0 | 0.0 | 0.00 | 0.00 | 0.00 | 1104.6 | |
| 20260506154709 | 73 | 89 | 0.0 | 0.0 | 0.00 | 0.00 | 0.00 | 1104.6 | |
| 20260506154204 | 73 | 315 | 0.0 | 0.0 | 0.00 | 0.00 | 0.00 | 1104.6 | |
| 20260506153659 | 73 | 315 | 0.0 | 0.0 | 0.00 | 0.00 | 0.00 | 1104.6 | |
| 20260506153153 | 73 | 45 | 0.0 | 0.0 | 0.00 | 0.00 | 0.00 | 1104.5 | |
| 20260506152648 | 73 | 179 | 0.0 | 0.0 | 0.00 | 0.00 | 0.00 | 1104.6 | |
| 20260506152142 | 73 | 334 | 0.0 | 0.0 | 0.00 | 0.00 | 0.00 | 1104.6 | |
| 20260506151637 | 72 | 184 | 0.0 | 0.0 | 0.00 | 0.00 | 0.00 | 1104.7 | |
| 20260506151132 | 72 | 134 | 0.0 | 0.0 | 0.00 | 0.00 | 0.00 | 1104.8 | |
| 20260506150626 | 72 | 319 | 0.0 | 0.0 | 0.00 | 0.00 | 0.00 | 1104.7 | |
| 20260506150121 | 72 | 236 | 0.0 | 0.0 | 0.00 | 0.00 | 0.00 | 1104.8 | |
| 20260506145615 | 72 | 76 | 0.0 | 0.0 | 0.00 | 0.00 | 0.00 | 1104.8 | |
| 20260506145110 | 73 | 257 | 0.0 | 0.0 | 0.00 | 0.00 | 0.00 | 1105.0 | |
| 20260506144604 | 73 | 45 | 0.0 | 0.0 | 0.00 | 0.00 | 0.00 | 1104.9 | |
| 20260506144059 | 73 | 45 | 0.0 | 0.0 | 0.00 | 0.00 | 0.00 | 1104.9 | |
| 20260506143554 | 73 | 45 | 0.0 | 0.0 | 0.00 | 0.00 | 0.00 | 1105.1 | |
| 20260506143048 | 73 | 45 | 0.0 | 0.0 | 0.00 | 0.00 | 0.00 | 1105.0 | |
| 20260506142543 | 74 | 270 | 0.0 | 0.0 | 0.00 | 0.00 | 0.00 | 1104.7 | |
| 20260506142038 | 74 | 270 | 0.0 | 0.0 | 0.00 | 0.00 | 0.00 | 1104.7 | |
| 20260506141532 | 75 | 227 | 0.0 | 0.0 | 0.00 | 0.00 | 0.00 | 1104.7 | |
| 20260506141026 | 75 | 315 | 0.0 | 0.0 | 0.00 | 0.00 | 0.00 | 1104.7 | |
| 20260506140520 | 76 | 189 | 0.0 | 0.0 | 0.00 | 0.00 | 0.00 | 1104.9 | |
| 20260506140015 | 76 | 179 | 0.0 | 0.0 | 0.00 | 0.00 | 0.00 | 1104.8 | |
| 20260506135509 | 77 | 187 | 0.0 | 0.0 | 0.00 | 0.00 | 0.00 | 1104.8 | |
| 20260506135004 | 78 | 315 | 0.0 | 0.0 | 0.00 | 0.00 | 0.00 | 1104.9 | |
| 20260506134459 | 79 | 17 | 0.0 | 0.0 | 0.00 | 0.00 | 0.00 | 1105.0 | |
| 20260506133953 | 79 | 134 | 0.0 | 0.0 | 0.00 | 0.00 | 0.00 | 1105.0 | |
| 20260506133448 | 80 | 134 | 0.0 | 0.0 | 0.00 | 0.00 | 0.00 | 1105.0 | |
| 20260506132942 | 80 | 134 | 0.0 | 0.0 | 0.00 | 0.00 | 0.00 | 1105.0 | |
| 20260506132437 | 80 | 0 | 0.0 | 0.0 | 0.00 | 0.00 | 0.00 | 1105.0 | |
| 20260506131425 | 79 | 41 | 0.0 | 0.0 | 0.00 | 0.00 | 0.00 | 1105.1 | |
| 20260506130920 | 79 | 344 | 0.0 | 0.0 | 0.00 | 0.00 | 0.00 | 1105.2 | |
| 20260506130414 | 78 | 134 | 0.0 | 0.0 | 0.00 | 0.00 | 0.00 | 1105.4 | |
| 20260506125909 | 77 | 0 | 0.0 | 0.0 | 0.00 | 0.00 | 0.00 | 1105.5 | |
| 20260506125404 | 77 | 0 | 0.0 | 0.0 | 0.00 | 0.00 | 0.00 | 1105.5 | |
| 20260506124858 | 77 | 45 | 0.0 | 0.0 | 0.00 | 0.00 | 0.00 | 1105.5 | |
| 20260506124353 | 77 | 45 | 0.0 | 0.0 | 0.00 | 0.00 | 0.00 | 1105.6 | |
| 20260506123847 | 77 | 162 | 0.0 | 0.0 | 0.00 | 0.00 | 0.00 | 1105.7 | |
| 20260506123342 | 76 | 179 | 0.0 | 0.0 | 0.00 | 0.00 | 0.00 | 1105.6 | |
| 20260506122837 | 77 | 217 | 0.0 | 0.0 | 0.00 | 0.00 | 0.00 | 1105.8 | |
| 20260506122331 | 77 | 314 | 0.0 | 0.0 | 0.00 | 0.00 | 0.00 | 1105.7 | |
| 20260506121826 | 78 | 234 | 0.0 | 0.0 | 0.00 | 0.00 | 0.00 | 1105.8 | |
| 20260506121320 | 79 | 47 | 0.0 | 0.0 | 0.00 | 0.00 | 0.00 | 1105.8 | |
| 20260506120815 | 79 | 45 | 0.0 | 0.0 | 0.00 | 0.00 | 0.00 | 1105.8 | |
| 20260506120310 | 79 | 45 | 0.0 | 0.0 | 0.00 | 0.00 | 0.00 | 1105.7 | |
| 20260506115804 | 79 | 218 | 0.0 | 0.0 | 0.00 | 0.00 | 0.00 | 1105.8 | |
| 20260506115259 | 80 | 134 | 0.0 | 0.0 | 0.00 | 0.00 | 0.00 | 1105.8 | |
| 20260506114753 | 80 | 134 | 0.0 | 0.0 | 0.00 | 0.00 | 0.00 | 1105.9 | |
| 20260506114248 | 79 | 134 | 0.0 | 0.0 | 0.00 | 0.00 | 0.00 | 1105.8 | |
| 20260506113742 | 79 | 82 | 0.0 | 0.0 | 0.00 | 0.00 | 0.00 | 1105.8 | |
| 20260506113237 | 79 | 0 | 0.0 | 0.0 | 0.00 | 0.00 | 0.00 | 1105.9 | |
| 20260506112731 | 78 | 29 | 0.0 | 0.0 | 0.00 | 0.00 | 0.00 | 1105.8 | |
| 20260506112226 | 78 | 45 | 0.0 | 0.0 | 0.00 | 0.00 | 0.00 | 1105.8 | |
| 20260506111721 | 78 | 45 | 0.0 | 0.0 | 0.00 | 0.00 | 0.00 | 1105.8 | |
| 20260506111215 | 78 | 45 | 0.0 | 0.0 | 0.00 | 0.00 | 0.00 | 1105.8 | |
| 20260506110710 | 78 | 89 | 0.0 | 0.0 | 0.00 | 0.00 | 0.00 | 1105.8 | |
| 20260506110204 | 78 | 0 | 0.0 | 0.0 | 0.00 | 0.00 | 0.00 | 1105.9 | |
| 20260506105659 | 78 | 33 | 0.0 | 0.0 | 0.00 | 0.00 | 0.00 | 1105.9 | |
| 20260506105153 | 78 | 315 | 0.0 | 0.0 | 0.00 | 0.00 | 0.00 | 1106.0 | |
| 20260506104648 | 78 | 134 | 0.0 | 0.0 | 0.00 | 0.00 | 0.00 | 1106.0 | |
| 20260506104143 | 77 | 134 | 0.0 | 0.0 | 0.00 | 0.00 | 0.00 | 1106.1 | |
| 20260506103637 | 76 | 134 | 0.0 | 0.0 | 0.00 | 0.00 | 0.00 | 1106.2 | |
| 20260506103132 | 76 | 134 | 0.0 | 0.0 | 0.00 | 0.00 | 0.00 | 1106.4 | |
| 20260506102627 | 75 | 134 | 0.0 | 0.0 | 0.00 | 0.00 | 0.00 | 1106.3 | |
| 20260506102121 | 76 | 279 | 0.0 | 0.0 | 0.00 | 0.00 | 0.00 | 1106.5 | |
| 20260506101616 | 76 | 15 | 0.0 | 0.0 | 0.00 | 0.00 | 0.00 | 1106.5 | |
| 20260506101110 | 76 | 0 | 0.0 | 0.0 | 0.00 | 0.00 | 0.00 | 1106.5 | |
| 20260506100605 | 76 | 0 | 0.0 | 0.0 | 0.00 | 0.00 | 0.00 | 1106.6 | |
| 20260506100059 | 76 | 0 | 0.0 | 0.0 | 0.00 | 0.00 | 0.00 | 1106.5 | |
| 20260506095554 | 76 | 0 | 0.0 | 0.0 | 0.00 | 0.00 | 0.00 | 1106.5 | |
| 20260506095049 | 76 | 0 | 0.0 | 0.0 | 0.00 | 0.00 | 0.00 | 1106.5 | |
| 20260506094543 | 77 | 0 | 0.0 | 0.0 | 0.00 | 0.00 | 0.00 | 1106.5 | |
| 20260506094038 | 77 | 351 | 0.0 | 0.0 | 0.00 | 0.00 | 0.00 | 1106.5 | |
| 20260506093532 | 77 | 338 | 0.0 | 0.0 | 0.00 | 0.00 | 0.00 | 1106.4 | |
| 20260506093027 | 77 | 315 | 0.0 | 0.0 | 0.00 | 0.00 | 0.00 | 1106.4 | |
| 20260506092522 | 77 | 316 | 0.0 | 0.0 | 0.00 | 0.00 | 0.00 | 1106.4 | |
| 20260506092016 | 77 | 315 | 0.0 | 0.0 | 0.00 | 0.00 | 0.00 | 1106.4 | |
| 20260506091511 | 77 | 45 | 0.0 | 0.0 | 0.00 | 0.00 | 0.00 | 1106.4 | |
| 20260506091005 | 77 | 45 | 0.0 | 0.0 | 0.00 | 0.00 | 0.00 | 1106.3 | |
| 20260506090500 | 77 | 45 | 0.0 | 0.0 | 0.00 | 0.00 | 0.00 | 1106.1 | |
| 20260506085954 | 77 | 45 | 0.0 | 0.0 | 0.00 | 0.00 | 0.00 | 1106.1 | |
| 20260506085449 | 77 | 45 | 0.0 | 0.0 | 0.00 | 0.00 | 0.00 | 1106.2 | |
| 20260506084944 | 77 | 45 | 0.0 | 0.0 | 0.00 | 0.00 | 0.00 | 1106.0 | |
| 20260506084438 | 77 | 45 | 0.0 | 0.0 | 0.00 | 0.00 | 0.00 | 1106.1 | |
| 20260506083933 | 77 | 45 | 0.0 | 0.0 | 0.00 | 0.00 | 0.00 | 1106.0 | |
| 20260506083427 | 77 | 45 | 0.0 | 0.0 | 0.00 | 0.00 | 0.00 | 1105.9 | |
| 20260506082922 | 77 | 45 | 0.0 | 0.0 | 0.00 | 0.00 | 0.00 | 1105.9 | |
| 20260506082416 | 77 | 45 | 0.0 | 0.0 | 0.00 | 0.00 | 0.00 | 1105.9 | |
| 20260506082156 | 77 | 45 | 0.0 | 0.0 | 0.00 | 0.00 | 0.00 | 1105.8 | |
| 20260506081911 | 77 | 45 | 0.0 | 0.0 | 0.00 | 0.00 | 0.00 | 1105.8 | |
| 20260506081406 | 77 | 60 | 0.0 | 0.0 | 0.00 | 0.00 | 0.00 | 1105.9 | |
| 20260506080900 | 77 | 134 | 0.0 | 0.0 | 0.00 | 0.00 | 0.00 | 1105.8 | |
| 20260506080355 | 76 | 134 | 0.0 | 0.0 | 0.00 | 0.00 | 0.00 | 1105.8 | |
| 20260506073322 | 70 | 45 | 0.0 | 0.0 | 0.00 | 0.00 | 0.00 | 1105.7 | |
| 20260506072817 | 70 | 89 | 0.0 | 0.0 | 0.00 | 0.00 | 0.00 | 1105.8 | |
| 20260506072311 | 69 | 315 | 0.0 | 0.0 | 0.00 | 0.00 | 0.00 | 1106.0 | |
| 20260506071806 | 69 | 315 | 0.0 | 0.0 | 0.00 | 0.00 | 0.00 | 1106.0 | |
| 20260506071301 | 69 | 315 | 0.0 | 0.0 | 0.00 | 0.00 | 0.00 | 1106.0 | |
| 20260506070755 | 69 | 316 | 0.0 | 0.0 | 0.00 | 0.00 | 0.00 | 1105.9 | |
| 20260506070250 | 69 | 316 | 0.0 | 0.0 | 0.00 | 0.00 | 0.00 | 1106.1 | |
| 20260506062205 | 68 | 315 | 1.0 | 3.0 | 0.00 | 0.00 | 0.00 | 1105.7 | |
| 20260506061700 | 68 | 316 | 0.0 | 2.0 | 0.00 | 0.00 | 0.00 | 1105.8 | |
| 20260506061155 | 68 | 315 | 0.0 | 0.0 | 0.00 | 0.00 | 0.00 | 1106.0 | |
| 20260506060649 | 68 | 315 | 0.0 | 0.0 | 0.00 | 0.00 | 0.00 | 1106.2 | |
| 20260506060144 | 68 | 270 | 0.0 | 0.0 | 0.00 | 0.00 | 0.00 | 1106.0 | |
| 20260506051048 | 67 | 315 | 0.0 | 0.0 | 0.00 | 0.00 | 0.00 | 1106.3 | |
| 20260506050541 | 67 | 2 | 0.0 | 2.0 | 0.00 | 0.00 | 0.00 | 1106.3 | |
| 20260506045025 | 67 | 285 | 0.0 | 4.0 | 0.00 | 0.00 | 0.00 | 1106.2 | |
| 20260506044520 | 66 | 285 | 0.0 | 4.0 | 0.00 | 0.00 | 0.00 | 1105.9 | |
| 20260506044014 | 66 | 307 | 0.0 | 3.0 | 0.00 | 0.00 | 0.00 | 1105.8 | |
| 20260506043509 | 66 | 23 | 0.0 | 2.0 | 0.00 | 0.00 | 0.00 | 1105.8 | |
| 20260506043003 | 66 | 359 | 0.0 | 3.0 | 0.00 | 0.00 | 0.00 | 1105.9 | |
| 20260506042458 | 66 | 313 | 0.0 | 3.0 | 0.00 | 0.00 | 0.00 | 1106.0 | |
| 20260506041953 | 66 | 305 | 0.0 | 3.0 | 0.00 | 0.00 | 0.00 | 1106.0 | |
| 20260506041447 | 66 | 228 | 0.0 | 3.0 | 0.00 | 0.00 | 0.00 | 1106.1 | |
| 20260506040942 | 66 | 67 | 0.0 | 3.0 | 0.00 | 0.00 | 0.00 | 1106.1 | |
| 20260506040436 | 66 | 349 | 0.0 | 3.0 | 0.00 | 0.00 | 0.00 | 1106.0 | |
| 20260506035931 | 66 | 153 | 0.0 | 3.0 | 0.00 | 0.00 | 0.00 | 1105.9 | |
| 20260506035426 | 66 | 319 | 0.0 | 5.0 | 0.00 | 0.00 | 0.00 | 1105.9 | |
| 20260506034920 | 66 | 304 | 0.0 | 5.0 | 0.00 | 0.00 | 0.00 | 1105.9 | |
| 20260506034415 | 66 | 318 | 1.0 | 3.0 | 0.00 | 0.00 | 0.00 | 1106.0 | |
| 20260506033909 | 66 | 310 | 0.0 | 3.0 | 0.00 | 0.00 | 0.00 | 1106.1 | |
| 20260506033404 | 66 | 318 | 0.0 | 3.0 | 0.00 | 0.00 | 0.00 | 1106.0 | |
| 20260506032858 | 66 | 9 | 0.0 | 3.0 | 0.00 | 0.00 | 0.00 | 1106.3 | |
| 20260506032353 | 66 | 69 | 0.0 | 3.0 | 0.00 | 0.00 | 0.00 | 1106.3 | |
| 20260506031847 | 66 | 53 | 0.0 | 2.0 | 0.00 | 0.00 | 0.00 | 1106.4 | |
| 20260506031342 | 65 | 349 | 0.0 | 3.0 | 0.00 | 0.00 | 0.00 | 1106.3 | |
| 20260506030836 | 65 | 310 | 0.0 | 3.0 | 0.00 | 0.00 | 0.00 | 1106.2 | |
| 20260506030330 | 65 | 312 | 0.0 | 4.0 | 0.00 | 0.00 | 0.00 | 1106.3 | |
| 20260506025825 | 65 | 16 | 1.0 | 4.0 | 0.00 | 0.00 | 0.00 | 1106.4 | |
| 20260506025319 | 65 | 274 | 0.0 | 3.0 | 0.00 | 0.00 | 0.00 | 1106.4 | |
| 20260506024814 | 65 | 265 | 1.0 | 3.0 | 0.00 | 0.00 | 0.00 | 1106.6 | |
| 20260506024309 | 65 | 245 | 1.0 | 3.0 | 0.00 | 0.00 | 0.00 | 1106.6 | |
| 20260506023803 | 65 | 311 | 0.0 | 4.0 | 0.00 | 0.00 | 0.00 | 1106.7 | |
| 20260506023258 | 65 | 314 | 0.0 | 5.0 | 0.00 | 0.00 | 0.00 | 1106.8 | |
| 20260506022752 | 65 | 34 | 1.0 | 5.0 | 0.00 | 0.00 | 0.00 | 1106.7 | |
| 20260506022247 | 65 | 50 | 0.0 | 3.0 | 0.00 | 0.00 | 0.00 | 1106.8 | |
| 20260506021741 | 65 | 294 | 0.0 | 3.0 | 0.00 | 0.00 | 0.00 | 1106.9 | |
| 20260506021236 | 65 | 317 | 0.0 | 3.0 | 0.00 | 0.00 | 0.00 | 1107.0 | |
| 20260506020731 | 65 | 36 | 0.0 | 3.0 | 0.00 | 0.00 | 0.00 | 1107.1 | |
| 20260506020225 | 65 | 48 | 0.0 | 3.0 | 0.00 | 0.00 | 0.00 | 1107.0 | |
| 20260506015719 | 65 | 17 | 0.0 | 4.0 | 0.00 | 0.00 | 0.00 | 1107.1 | |
| 20260506015213 | 65 | 350 | 1.0 | 4.0 | 0.00 | 0.00 | 0.00 | 1107.0 | |
| 20260506014708 | 65 | 329 | 0.0 | 3.0 | 0.00 | 0.00 | 0.00 | 1107.0 | |
| 20260506014202 | 65 | 20 | 0.0 | 3.0 | 0.00 | 0.00 | 0.00 | 1107.0 | |
| 20260506013657 | 65 | 303 | 0.0 | 3.0 | 0.00 | 0.00 | 0.00 | 1107.0 | |
| 20260506013151 | 65 | 106 | 0.0 | 2.0 | 0.00 | 0.00 | 0.00 | 1107.0 | |
| 20260506012646 | 65 | 4 | 0.0 | 2.0 | 0.00 | 0.00 | 0.00 | 1107.1 | |
| 20260506012141 | 65 | 234 | 0.0 | 3.0 | 0.00 | 0.00 | 0.00 | 1107.1 | |
| 20260506011635 | 66 | 92 | 0.0 | 3.0 | 0.00 | 0.00 | 0.00 | 1107.1 | |
| 20260506011130 | 66 | 33 | 1.0 | 3.0 | 0.00 | 0.00 | 0.00 | 1107.1 | |
| 20260506010624 | 66 | 349 | 0.0 | 3.0 | 0.00 | 0.00 | 0.00 | 1107.1 | |
| 20260506010119 | 66 | 83 | 0.0 | 2.0 | 0.00 | 0.00 | 0.00 | 1107.1 | |
| 20260506005614 | 66 | 0 | 0.0 | 0.0 | 0.00 | 0.00 | 0.00 | 1107.2 | |
| 20260506005108 | 66 | 20 | 0.0 | 0.0 | 0.00 | 0.00 | 0.00 | 1107.3 | |
| 20260506004603 | 65 | 4 | 0.0 | 0.0 | 0.00 | 0.00 | 0.00 | 1107.3 | |
| 20260506004057 | 65 | 195 | 0.0 | 0.0 | 0.00 | 0.00 | 0.00 | 1107.2 | |
| 20260506003552 | 65 | 45 | 0.0 | 3.0 | 0.00 | 0.00 | 0.00 | 1107.3 | |
| 20260506003047 | 65 | 110 | 0.0 | 3.0 | 0.00 | 0.00 | 0.00 | 1107.3 | |
| 20260506002541 | 65 | 0 | 1.0 | 3.0 | 0.00 | 0.00 | 0.00 | 1107.1 | |
| 20260506002036 | 65 | 3 | 1.0 | 4.0 | 0.00 | 0.00 | 0.00 | 1107.1 | |
| 20260506001530 | 65 | 325 | 0.0 | 4.0 | 0.00 | 0.00 | 0.00 | 1107.2 | |
| 20260506001025 | 65 | 233 | 0.0 | 3.0 | 0.00 | 0.00 | 0.00 | 1107.2 | |
| 20260506000520 | 65 | 110 | 0.0 | 5.0 | 0.00 | 0.00 | 0.00 | 1107.3 | |
| 20260506000014 | 65 | 16 | 2.0 | 5.0 | 0.00 | 0.00 | 0.00 | 1107.3 | |
| 20260505235516 | 65 | 308 | 0.0 | 0.0 | 0.00 | 0.00 | 0.00 | 1107.3 | |
| 20260505234504 | 65 | 45 | 0.0 | 3.0 | 0.00 | 0.00 | 0.00 | 1107.5 | |
| 20260505234000 | 65 | 336 | 0.0 | 2.0 | 0.00 | 0.00 | 0.00 | 1107.6 | |
| 20260505233442 | 64 | 272 | 0.0 | 2.0 | 0.00 | 0.00 | 0.00 | 1107.7 | |
| 20260505232937 | 64 | 23 | 0.0 | 2.0 | 0.00 | 0.00 | 0.00 | 1107.7 | |
| 20260505232431 | 64 | 73 | 0.0 | 3.0 | 0.00 | 0.00 | 0.00 | 1107.8 | |
| 20260505231926 | 64 | 25 | 0.0 | 3.0 | 0.00 | 0.00 | 0.00 | 1107.7 | |
| 20260505231420 | 64 | 359 | 0.0 | 4.0 | 0.00 | 0.00 | 0.00 | 1107.8 | |
| 20260505230915 | 64 | 52 | 0.0 | 4.0 | 0.00 | 0.00 | 0.00 | 1107.9 | |
| 20260505230410 | 64 | 16 | 1.0 | 4.0 | 0.00 | 0.00 | 0.00 | 1107.9 | |
| 20260505225904 | 64 | 23 | 0.0 | 4.0 | 0.00 | 0.00 | 0.00 | 1107.9 | |
| 20260505225359 | 64 | 101 | 0.0 | 2.0 | 0.00 | 0.00 | 0.00 | 1108.0 | |
| 20260505224853 | 64 | 351 | 0.0 | 2.0 | 0.00 | 0.00 | 0.00 | 1108.0 | |
| 20260505224348 | 65 | 50 | 0.0 | 0.0 | 0.00 | 0.00 | 0.00 | 1108.0 | |
| 20260505223843 | 65 | 32 | 0.0 | 3.0 | 0.00 | 0.00 | 0.00 | 1108.2 | |
| 20260505223337 | 65 | 62 | 0.0 | 3.0 | 0.00 | 0.00 | 0.00 | 1108.2 | |
| 20260505222832 | 65 | 258 | 0.0 | 0.0 | 0.00 | 0.00 | 0.00 | 1108.2 | |
| 20260505222326 | 65 | 245 | 0.0 | 2.0 | 0.00 | 0.00 | 0.00 | 1108.2 | |
| 20260505221821 | 65 | 0 | 0.0 | 4.0 | 0.00 | 0.00 | 0.00 | 1108.3 | |
| 20260505221316 | 65 | 55 | 0.0 | 5.0 | 0.00 | 0.00 | 0.00 | 1108.4 | |
| 20260505220810 | 65 | 27 | 1.0 | 5.0 | 0.00 | 0.00 | 0.00 | 1108.4 | |
| 20260505220305 | 65 | 39 | 0.0 | 3.0 | 0.00 | 0.00 | 0.00 | 1108.3 | |
| 20260505215759 | 65 | 10 | 1.0 | 3.0 | 0.00 | 0.00 | 0.00 | 1108.3 | |
| 20260505215254 | 65 | 33 | 0.0 | 3.0 | 0.00 | 0.00 | 0.00 | 1108.4 | |
| 20260505214748 | 65 | 51 | 0.0 | 3.0 | 0.00 | 0.00 | 0.00 | 1108.3 | |
| 20260505214243 | 65 | 328 | 1.0 | 5.0 | 0.00 | 0.00 | 0.00 | 1108.4 | |
| 20260505213738 | 65 | 19 | 1.0 | 5.0 | 0.00 | 0.00 | 0.00 | 1108.6 | |
| 20260505213232 | 65 | 280 | 0.0 | 5.0 | 0.00 | 0.00 | 0.00 | 1108.6 | |
| 20260505212727 | 65 | 319 | 0.0 | 5.0 | 0.00 | 0.00 | 0.00 | 1108.5 | |
| 20260505212221 | 65 | 333 | 1.0 | 4.0 | 0.00 | 0.00 | 0.00 | 1108.6 | |
| 20260505211716 | 65 | 31 | 1.0 | 6.0 | 0.00 | 0.00 | 0.00 | 1108.7 | |
| 20260505211211 | 65 | 25 | 1.0 | 6.0 | 0.00 | 0.00 | 0.00 | 1108.6 | |
| 20260505210705 | 65 | 43 | 0.0 | 5.0 | 0.00 | 0.00 | 0.00 | 1108.7 | |
| 20260505210200 | 65 | 30 | 1.0 | 5.0 | 0.00 | 0.00 | 0.00 | 1108.7 | |
| 20260505205654 | 66 | 343 | 0.0 | 3.0 | 0.00 | 0.00 | 0.00 | 1108.8 | |
| 20260505205148 | 66 | 40 | 0.0 | 3.0 | 0.00 | 0.00 | 0.00 | 1108.7 |